| time (UTC) | temp F | wind direction | speed knots | gust knots | rain 1hr in | rain 24hr in | rain mn in | humidity % | barometer mb |
| 20260509232010 | 67 | 158 | 2.6 | 2.6 | 0.00 | 0.00 | 0.10 | 60 | 970.2 |
| 20260509231509 | 67 | 154 | 2.6 | 2.6 | 0.00 | 0.00 | 0.10 | 60 | 970.5 |
| 20260509231010 | 68 | 164 | 3.5 | 3.5 | 0.00 | 0.00 | 0.10 | 59 | 970.2 |
| 20260509230010 | 68 | 180 | 2.6 | 2.6 | 0.00 | 0.00 | 0.10 | 59 | 970.5 |
| 20260509225037 | 68 | 170 | 6.1 | 6.1 | 0.00 | 0.00 | 0.10 | 59 | 970.2 |
| 20260509215920 | 69 | 173 | 2.6 | 2.6 | 0.00 | 0.00 | 0.10 | 59 | 970.2 |
| 20260509214420 | 67 | 250 | 3.5 | 3.5 | 0.00 | 0.00 | 0.10 | 58 | 970.2 |
| 20260509211420 | 65 | 157 | 4.3 | 4.3 | 0.00 | 0.00 | 0.10 | 61 | 970.5 |
| 20260509205920 | 65 | 171 | 5.2 | 5.2 | 0.00 | 0.00 | 0.10 | 63 | 970.9 |
| 20260509205421 | 65 | 231 | 3.5 | 3.5 | 0.00 | 0.00 | 0.10 | 64 | 970.9 |
| 20260509203920 | 65 | 176 | 1.7 | 1.7 | 0.00 | 0.00 | 0.10 | 65 | 970.9 |
| 20260509203420 | 65 | 144 | 1.7 | 1.7 | 0.00 | 0.00 | 0.10 | 65 | 971.2 |
| 20260509200921 | 64 | 135 | 2.6 | 2.6 | 0.00 | 0.00 | 0.10 | 67 | 971.2 |
| 20260509200421 | 65 | 228 | 2.6 | 2.6 | 0.00 | 0.00 | 0.10 | 66 | 971.2 |
| 20260509195421 | 63 | 219 | 2.6 | 2.6 | 0.00 | 0.00 | 0.10 | 68 | 971.9 |
| 20260509190421 | 63 | 153 | 3.5 | 3.5 | 0.00 | 0.00 | 0.10 | 71 | 971.9 |
| 20260509184421 | 63 | 133 | 2.6 | 2.6 | 0.00 | 0.00 | 0.10 | 70 | 971.9 |
| 20260509183421 | 62 | 158 | 2.6 | 2.6 | 0.00 | 0.00 | 0.10 | 71 | 971.9 |
| 20260509182920 | 64 | 158 | 2.6 | 2.6 | 0.00 | 0.00 | 0.10 | 71 | 971.9 |
| 20260509181921 | 61 | 209 | 2.6 | 2.6 | 0.00 | 0.00 | 0.10 | 76 | 972.2 |
| 20260509181420 | 62 | 223 | 3.5 | 3.5 | 0.00 | 0.00 | 0.10 | 74 | 971.9 |
| 20260509180920 | 61 | 201 | 3.5 | 3.5 | 0.00 | 0.00 | 0.10 | 76 | 972.2 |
| 20260509175921 | 60 | 186 | 3.5 | 3.5 | 0.00 | 0.00 | 0.10 | 78 | 972.2 |
| 20260509174921 | 59 | 154 | 3.5 | 3.5 | 0.00 | 0.00 | 0.10 | 80 | 972.2 |
| 20260509171920 | 59 | 141 | 1.7 | 1.7 | 0.00 | 0.00 | 0.10 | 84 | 972.2 |
| 20260509171421 | 58 | 110 | 0.9 | 0.9 | 0.00 | 0.00 | 0.10 | 85 | 972.6 |
| 20260509163953 | 57 | 180 | 1.7 | 1.7 | 0.00 | 0.00 | 0.10 | 88 | 972.2 |
| 20260509162453 | 56 | 195 | 2.6 | 2.6 | 0.00 | 0.00 | 0.10 | 89 | 972.2 |
| 20260509161953 | 56 | 191 | 4.3 | 4.3 | 0.00 | 0.00 | 0.10 | 90 | 972.6 |